Regional Weather Roundup
Issued by NWS

Home | Current Version | Previous Version | Text Only | Print | Product List | Glossary Off
Versions: 1 2 3 4 5 6 7 8 9 10 11 12 13 14 15 16 17 18 19 20 21 22 23 24 25 26 27 28 29 30 31 32 33 34 35 36 37 38 39 40 41 42 43 44 45 46 47 48 49 50

000
ASUS45 KCYS 211410
RWRWY

WYOMING REGIONAL WEATHER ROUNDUP
NATIONAL WEATHER SERVICE CHEYENNE WY
700 AM MST SUN DEC 21 2014

NOTE:  "FAIR" INDICATES FEW OR NO CLOUDS BELOW 12,000 FEET
WITH NO SIGNIFICANT WEATHER AND/OR OBSTRUCTIONS TO VISIBILITY.

WYZ001-211500-
YELLOWSTONE NATIONAL PARK

CITY           SKY/WX    TMP DP  RH WIND       PRES   REMARKS
LK YELLOWSTONE   N/A     27  24  89 MISG      29.65F
W YELLOWSTONE  NOT AVBL

$$
WYZ002>013-054>058-071-098>099-211500-
NORTHERN WYOMING

CITY           SKY/WX    TMP DP  RH WIND       PRES   REMARKS
JACKSON        LGT SNOW  32  30  93 S21G28    29.70S WCI  20
CODY           FAIR      41  27  56 NW28G35   29.51R
GREYBULL       CLOUDY    17  14  88 NW5       29.56S WCI  10
WORLAND        FAIR      16  12  84 VRB3      29.56R
SHERIDAN       CLOUDY    26  20  77 NW6       29.47F WCI  19
BUFFALO        CLOUDY    33  18  53 NW8       29.46F WCI  26
GILLETTE       FAIR      36  26  67 SW25G31   29.47F WCI  24
HULETT           N/A    N/A N/A N/A MISG        N/A
NEWCASTLE      FAIR      23  19  86 CALM      29.57F

$$
WYZ014>020-022>026-101>103-211500-
CENTRAL WYOMING

CITY           SKY/WX    TMP DP  RH WIND       PRES   REMARKS
BIG PINEY      LGT SNOW  27  25  92 S5        29.76F FOG     WCI  22
PINEDALE       LGT SNOW  28  28 100 SE7       29.77S WCI  21
DUBOIS         NOT AVBL
LANDER         FAIR      16  11  80 VRB5      29.59F WCI   9
RIVERTON       FAIR      19  16  88 W8        29.61F WCI   9
CASPER         FAIR      35  27  72 SW25G36   29.58F WCI  23
DOUGLAS        FAIR      41  26  55 W17G25    29.56F

$$
WYZ021-027>030-104>119-211500-
SOUTHERN WYOMING

CITY           SKY/WX    TMP DP  RH WIND       PRES   REMARKS
EVANSTON       LGT SNOW  31  30  96 SW21G29   29.88S FOG     WCI  18
KEMMERER       LGT SNOW  32  32 100 SW21G29   29.83R WCI  20
FORT BRIDGER   FLURRIES  34  32  94 W29G36    29.85F WCI  20
ROCK SPRINGS   LGT SNOW  30  27  88 SW21      29.80F FOG     WCI  17
DIXON          LGT SNOW  32  29  88 SW18G33   29.88F WCI  20
RAWLINS        CLOUDY    32  25  75 SW36G52   29.72F WCI  16
SARATOGA       CLOUDY    32  27  80 S20G26    29.78F WCI  20
LARAMIE        CLOUDY    30  21  69 SW18      29.73F WCI  18
CHEYENNE       FAIR      36  18  48 S9G26     29.69F WCI  29
TORRINGTON     FAIR     N/A N/A N/A SW3       29.63F
PINE BLUFFS    FAIR      28  21  74 S10       29.69F WCI  19

$$



USA.gov is the U.S. government's official web portal to all federal, state and local government web resources and services.